Home > Weather > Winterthur > Past weeks

Flag for Switzerland Weather for the Past 2 Weeks in Winterthur, Switzerland

Now
37 °F

Clear.


Feels Like: 31 °F
Forecast: 38 / 49 °F
Wind: 9 mph from South

Location: Zurich-Kloten

Current Time: Feb 8, 2016 at 5:10:46 AM

Latest Report: Feb 8, 2016 at 4:20 AM


Visibility: 10 mi

Pressure: 29.86 "Hg

Humidity: 81%

Dew point: 32 °F

Location of WinterthurLocation

Historic Weather in Winterthur — Graph

°F

Winterthur Temperature Yesterday

Maximum temperature yesterday: 46 °F (at 12:50 PM)
Minimum temperature yesterday: 30 °F (at 2:20 AM)
Average temperature yesterday: 37 °F

High & Low Weather Summary for the Past Weeks

 TemperatureHumidityPressure
High55 °F (Feb 1, 11:20 AM)100% (Jan 24, 3:20 AM)30.60 "Hg (Jan 24, 3:20 AM)
Low28 °F (Jan 24, 3:20 AM)47% (Jan 25, 2:50 PM)29.62 "Hg (Feb 7, 9:20 AM)
Average42 °F82%30.25 "Hg
* Reported Jan 24 3:20 AM — Feb 8 3:20 AM, Winterthur, Weather by CustomWeather, © 2016

Note: Actual official high and low records may vary slightly from our data, if they occured in-between our weather recording intervals... More about our weather records

Advertising

Winterthur Weather History for the Previous 24 Hours

 ConditionsComfort  
Time TempWeatherWind HumidityBarometerVisibility
3:20 AM
Mon, Feb 8
37 °FPassing clouds.9 mph81%29.89 "HgN/A
2:50 AM37 °FClear.7 mph81%29.89 "Hg10 mi
2:20 AM37 °FClear.7 mph81%29.89 "Hg10 mi
1:50 AM41 °FClear.8 mph70%29.92 "Hg10 mi
12:50 AM41 °FClear.13 mph70%29.92 "Hg10 mi
12:20 AM41 °FClear.16 mph70%29.92 "Hg10 mi
11:50 PM
Sun, Feb 7
41 °FClear.14 mph76%29.95 "Hg10 mi
11:20 PM41 °FPassing clouds.12 mph76%29.92 "HgN/A
10:50 PM41 °FClear.10 mph76%29.95 "Hg10 mi
10:20 PM41 °FPassing clouds.9 mph76%29.92 "HgN/A
9:50 PM41 °FPassing clouds.10 mph81%29.92 "HgN/A
9:20 PM41 °FPassing clouds.9 mph81%29.92 "HgN/A
8:50 PM41 °FPassing clouds.10 mph81%29.92 "HgN/A
8:20 PM41 °FPartly cloudy.6 mph81%29.92 "HgN/A
7:50 PM41 °FPassing clouds.8 mph81%29.92 "HgN/A
7:20 PM41 °FPassing clouds.6 mph81%29.92 "HgN/A
6:50 PM41 °FLight rain. Partly cloudy.6 mph81%29.89 "HgN/A
6:20 PM41 °FLight rain. Partly cloudy.8 mph87%29.89 "HgN/A
5:50 PM41 °FLight rain. Passing clouds.8 mph87%29.86 "HgN/A
5:20 PM41 °FLight rain. Broken clouds.5 mph87%29.86 "HgN/A
4:50 PM41 °FLight rain. Partly sunny.7 mph87%29.86 "HgN/A
4:20 PM41 °FLight rain. Broken clouds.9 mph87%29.86 "HgN/A
3:50 PM41 °FLight rain. Broken clouds.10 mph81%29.83 "HgN/A
3:20 PM41 °FLight rain. Partly sunny.12 mph81%29.83 "HgN/A
2:50 PM43 °FBroken clouds.12 mph76%29.80 "HgN/A
2:20 PM43 °FPartly sunny.12 mph76%29.77 "HgN/A
1:50 PM45 °FBroken clouds.16 mph76%29.74 "HgN/A
1:20 PM45 °FPartly sunny.15 mph76%29.74 "HgN/A
12:50 PM46 °FBroken clouds.14 mph76%29.71 "HgN/A
12:20 PM43 °FPartly sunny.2 mph87%29.71 "HgN/A
11:50 AM41 °FPartly sunny.6 mph87%29.68 "HgN/A
11:20 AM36 °FPartly sunny.12 mph100%29.65 "Hg4 mi
10:50 AM36 °FBroken clouds.2 mph93%29.62 "Hg3 mi
10:20 AM34 °FFog.3 mph100%29.62 "Hg2 mi
9:50 AM32 °FIce fog.3 mph100%29.62 "Hg1 mi
9:20 AM32 °FIce fog.2 mph100%29.62 "Hg1 mi
8:50 AM32 °FChilly.No wind100%29.65 "Hg1 mi
8:20 AM32 °FDense fog.2 mph100%29.65 "Hg1 mi
7:50 AM32 °FPartly sunny.5 mph100%29.65 "Hg1 mi
7:20 AM32 °FIce fog.7 mph100%29.65 "Hg1 mi
6:50 AM32 °FIce fog.2 mph100%29.65 "Hg0 mi
6:20 AM32 °FIce fog.5 mph100%29.68 "Hg0 mi
5:50 AM30 °FIce fog.2 mph100%29.68 "Hg1 mi
5:20 AM30 °FIce fog.2 mph100%29.71 "Hg1 mi
Weather by CustomWeather, © 2016

See weather overviewHow to use our weather pages